TimeEDT,TemperatureF,Dew PointF,Humidity,Sea Level PressureIn,VisibilityMPH,Wind Direction,Wind SpeedMPH,Gust SpeedMPH,PrecipitationIn,Events,Conditions,WindDirDegrees,DateUTC
12:55 AM,55.9,53.1,90,29.73,9.0,WNW,15.0,-,0.00,,Overcast,290,2013-09-02 04:55:00
1:15 AM,55.0,52.0,89,29.74,8.0,WNW,17.3,24.2,N/A,,Overcast,290,2013-09-02 05:15:00
1:55 AM,55.0,51.1,86,29.73,10.0,WNW,16.1,26.5,N/A,,Overcast,290,2013-09-02 05:55:00
2:21 AM,55.0,50.0,83,29.74,10.0,WNW,16.1,23.0,N/A,,Overcast,290,2013-09-02 06:21:00
2:55 AM,55.0,48.9,80,29.73,10.0,WNW,13.8,23.0,N/A,,Overcast,300,2013-09-02 06:55:00
3:55 AM,54.0,48.9,83,29.74,10.0,West,13.8,25.3,N/A,,Overcast,280,2013-09-02 07:55:00
4:55 AM,54.0,50.0,86,29.73,10.0,WNW,16.1,24.2,N/A,,Overcast,290,2013-09-02 08:55:00
5:46 AM,53.1,51.1,93,29.74,5.0,West,13.8,-,0.00,Rain,Light Rain,280,2013-09-02 09:46:00
5:55 AM,53.1,51.1,93,29.73,4.0,West,16.1,-,0.01,Rain,Light Rain,280,2013-09-02 09:55:00
6:06 AM,53.1,51.1,93,29.74,4.0,West,15.0,23.0,0.00,Rain,Light Rain,280,2013-09-02 10:06:00
6:55 AM,53.1,51.1,93,29.74,7.0,WNW,15.0,24.2,0.00,Rain,Light Rain,290,2013-09-02 10:55:00
7:17 AM,53.1,51.1,93,29.75,6.0,WNW,12.7,-,0.00,,Overcast,290,2013-09-02 11:17:00
7:55 AM,53.1,51.1,93,29.75,8.0,WNW,15.0,21.9,0.00,,Overcast,290,2013-09-02 11:55:00
8:34 AM,53.1,50.0,89,29.76,5.0,WNW,13.8,21.9,N/A,,Overcast,300,2013-09-02 12:34:00
8:55 AM,53.1,50.0,89,29.76,6.0,WNW,16.1,27.6,0.00,,Overcast,290,2013-09-02 12:55:00
9:55 AM,54.0,51.1,90,29.77,5.0,WNW,13.8,20.7,0.00,Rain,Light Rain,300,2013-09-02 13:55:00
10:10 AM,54.0,51.1,90,29.77,6.0,WNW,15.0,21.9,0.00,,Overcast,300,2013-09-02 14:10:00
10:20 AM,55.0,51.1,86,29.78,10.0,NW,16.1,21.9,0.00,,Overcast,310,2013-09-02 14:20:00
10:55 AM,55.0,51.1,86,29.78,8.0,WNW,15.0,25.3,0.00,,Overcast,300,2013-09-02 14:55:00
11:55 AM,55.0,51.1,86,29.79,6.0,WNW,17.3,24.2,0.00,,Overcast,300,2013-09-02 15:55:00
12:55 PM,55.0,50.0,83,29.81,10.0,WNW,12.7,27.6,N/A,,Overcast,300,2013-09-02 16:55:00
1:55 PM,55.0,48.9,80,29.81,10.0,WNW,16.1,24.2,N/A,,Overcast,300,2013-09-02 17:55:00
2:30 PM,55.9,48.9,77,29.82,10.0,WNW,15.0,23.0,N/A,,Overcast,300,2013-09-02 18:30:00
2:55 PM,55.9,48.9,77,29.82,10.0,WNW,15.0,26.5,N/A,,Overcast,300,2013-09-02 18:55:00
3:37 PM,55.0,51.1,86,29.82,9.0,NW,10.4,-,0.00,,Overcast,310,2013-09-02 19:37:00
3:46 PM,55.0,51.1,86,29.81,7.0,WNW,16.1,23.0,0.00,,Overcast,300,2013-09-02 19:46:00
3:55 PM,55.0,50.0,83,29.81,9.0,NW,12.7,28.8,0.00,,Overcast,310,2013-09-02 19:55:00
4:55 PM,55.9,48.9,77,29.82,10.0,NW,13.8,25.3,N/A,,Overcast,310,2013-09-02 20:55:00
5:55 PM,55.9,48.9,77,29.83,10.0,NW,12.7,24.2,N/A,,Overcast,310,2013-09-02 21:55:00
6:55 PM,55.0,51.1,86,29.84,10.0,NW,11.5,-,0.00,,Overcast,310,2013-09-02 22:55:00
7:13 PM,55.0,51.1,86,29.84,9.0,NW,13.8,19.6,N/A,,Overcast,310,2013-09-02 23:13:00
7:25 PM,55.0,51.1,86,29.84,10.0,NW,10.4,20.7,N/A,,Overcast,310,2013-09-02 23:25:00
7:37 PM,55.0,51.1,86,29.85,10.0,NW,17.3,25.3,N/A,,Overcast,320,2013-09-02 23:37:00
7:55 PM,54.0,51.1,90,29.85,5.0,NW,10.4,-,0.00,Rain,Light Rain,320,2013-09-02 23:55:00
8:03 PM,55.0,51.1,86,29.85,10.0,NW,11.5,17.3,0.00,,Overcast,320,2013-09-03 00:03:00
8:24 PM,55.0,51.1,86,29.86,10.0,NW,9.2,-,0.00,,Overcast,320,2013-09-03 00:24:00
8:55 PM,55.0,48.9,80,29.86,10.0,NW,11.5,21.9,0.00,,Overcast,320,2013-09-03 00:55:00
9:55 PM,55.0,50.0,83,29.86,10.0,NW,11.5,17.3,N/A,,Overcast,310,2013-09-03 01:55:00
10:18 PM,55.0,50.0,83,29.86,10.0,NW,8.1,-,N/A,,Overcast,310,2013-09-03 02:18:00
10:55 PM,55.9,50.0,80,29.87,10.0,NNW,9.2,-,N/A,,Overcast,330,2013-09-03 02:55:00
11:55 PM,55.0,48.9,80,29.88,10.0,NW,4.6,-,N/A,,Mostly Cloudy,320,2013-09-03 03:55:00